SL-14 DEB

Satellite information

Favourite Embed

Satellite Type and Status

DEBRISIN ORBIT

Key statistics

Satellite SL-14 DEB at a glance.

Uptime

13838

Days in orbit

Revolutions

≈ 13.9

Per day

Orbit

LEO

Low Earth Orbit

Inclination

82.5

Latest

Satellite identification and parameters

Extended collection of information and parameters for SL-14 DEB.

Object identification

Identified? True

Debris? True

Object name: SL-14 DEB

International designator: 1987-068CX

Object number (NORAD): 39971

Object ID (CCSDS): 39971

Country: COMMONWEALTH OF INDEPENDENT STATES (CIS)

Current information (Y/N): Y

RCS size: SMALL

Orbital parameters

Period: 103.621 minutes

Inclination: 82.4565 deg

SMA: 7307.897 km

Apoapsis: 974.219 km

Periapsis: 885.305 km

RAAN: 175.6129 deg

Eccentricy: 0.0060834

Argument of periapsis: 327.0118 deg

Mean anomaly: 95.7397 deg

Mean motion: 13.89677913 rev/day

Mean motion (dot): 0.00001211 rev/day2

B* drag term: 0.00096275 1/REarth

Two-line elements (TLE)

Creation date: July 6, 2025, 6:05 p.m.

Reference frame: TEME

Reference center: EARTH

Epoch: July 6, 2025, 6:58 a.m. UTC

TLE line 0: 0 SL-14 DEB

TLE line 1: 1 39971U 87068CX 25187.29084584 .00001211 00000-0 96275-3 0 9998

TLE line 2: 2 39971 82.4565 175.6129 0060834 327.0118 95.7397 13.89677913561865

Live tracking on map

Real-time ground track for satellite SL-14 DEB.

In-orbit conjunctions

A list of the most updated potential collisions computed for object SL-14 DEB.

Target Orbit TCA Probability of collision Miss distance Type
COSMOS 1275 DEB LEO 2024-11-16 09:39:11 0.0001944389 780.0 (m) DEBRIS
MOS 1B (MOMO 1B) SSO 2024-08-08 06:02:19 0.0003949577 304.0 (m) PAYLOAD

Associated space launch

Second generation soviet meteorological satellite

SL-14 DEB was lifted into orbit during the mission ‘Tsiklon-3 | Meteor-2 16’, on board a Tsiklon-3 space rocket.

The launch took place on Aug. 18, 1987, 2:27 a.m. from 32/1.

For more information about the launch, click the button.

Launch to space Tsiklon-3 | Meteor-2 16
Tsiklon-3 | Meteor-2 16

Agency: N/A

Status: Launch Successful

Launch date: Aug. 18, 1987, 2:27 a.m. UTC

Rocket: Tsiklon-3

Launch pad: 32/1

Location: Plesetsk Cosmodrome, Russian Federation

...

Latest news about this satellite

There are no fresh news available about this satellite. Check back as we update our databases every day.


Newsletter sign-up

Weekly statistics, charts and insights to help you stay on top of the space industry.